Location: Unspecified
(41.1850°N, 73.2650°W)
Time: 09:41:40
(UTC+00:00)

ARIANE 6 FM1 Upper Stage - Pass Details

Date: 18 February 2026
Orbit: 523 x 607 km, 62.0° (Epoch: 7 March)

Event Time Altitude Azimuth Distance (km) Brightness Sun altitude
Rises 00:04:20 0° 323° (NW) 2,657 6.7 -18.4°
Reaches altitude 10° 00:06:31 10° 324° (NW) 1,766 5.7 -18.8°
Maximum altitude 00:10:29 85° 52° (NE) 534 2.4 -19.6°
Enters shadow 00:11:33 47° 138° (SE) 700 2.8 -19.8°
